Date String (YYYY-MM-DD hh:mm:ss) UTC,Instrument flags,Ambient pressure (hPa),Sample flow (lpm),Bypass flow (lpm),Sample temperature (°C),Ambient temperature (°C),ASC tube jacket temperature (°C),LED temperature (°C),Box temperature (°C),Sample RH (%),Span deviation,Mass concentration (μg/m³),Mass concentration (μg/m³),Mass concentration (μg/m³)
DateTimeUTC,F1_M11,P_M11,Q1_M11,Q2_M11,T1_M11,T2_M11,T3_M11,T4_M11,T5_M11,U1_M11,ZSPAN_M11,X2_M11,X0_M11,X1_M11
2022-02-06 05:00:00,,0827.6,5.00,0.00,22.6,22.4,00.0,31.4,24.4,08.1,0000.0,0002.34,0003.46,0001.87
2022-02-06 05:01:00,,0827.5,4.99,0.00,22.6,22.3,00.0,31.4,24.3,08.0,0000.0,0002.30,0003.77,0001.85
2022-02-06 05:02:00,,0827.5,4.99,0.00,22.5,22.2,00.0,31.4,24.3,07.3,0000.0,0002.22,0003.74,0001.75
2022-02-06 05:03:00,,0827.7,5.01,0.00,22.5,22.1,00.0,31.4,24.3,07.3,0000.0,0002.09,0003.60,0001.64
2022-02-06 05:04:00,,0827.7,4.99,0.00,22.5,22.0,00.0,31.4,24.2,07.8,0000.0,0002.07,0003.71,0001.60
2022-02-06 05:05:00,,0827.7,5.01,0.00,22.4,21.8,00.0,31.4,24.1,08.0,0000.0,0002.07,0003.86,0001.58
2022-02-06 05:06:00,,0827.7,5.00,0.00,22.4,21.7,00.0,31.4,24.0,07.8,0000.0,0001.99,0003.71,0001.55
2022-02-06 05:07:00,,0827.7,5.00,0.00,22.4,21.7,00.0,31.4,24.0,07.9,0000.0,0001.94,0003.65,0001.51
2022-02-06 05:08:00,,0827.6,5.00,0.00,22.3,21.6,00.0,31.4,24.1,07.9,0000.0,0001.85,0003.48,0001.46
2022-02-06 05:09:00,,0827.6,5.01,0.00,22.4,21.6,00.0,31.4,24.1,07.9,0000.0,0001.79,0003.39,0001.42
2022-02-06 05:10:00,,0827.7,4.99,0.00,22.4,21.6,00.0,31.4,24.1,07.7,0000.0,0001.74,0003.26,0001.37
2022-02-06 05:11:00,,0827.6,5.00,0.00,22.3,21.6,00.0,31.4,24.1,07.7,0000.0,0001.67,0003.18,0001.31
2022-02-06 05:12:00,,0827.6,5.00,0.00,22.3,21.6,00.0,31.4,24.1,07.7,0000.0,0001.62,0002.78,0001.26
2022-02-06 05:13:00,,0827.7,5.01,0.00,22.3,21.6,00.0,31.4,24.1,07.8,0000.0,0001.63,0002.66,0001.26
2022-02-06 05:14:00,,0827.7,4.99,0.00,22.3,21.6,00.0,31.4,24.1,07.8,0000.0,0001.70,0002.78,0001.30
2022-02-06 05:15:00,,0827.6,5.01,0.00,22.3,21.6,00.0,31.3,24.1,07.8,0000.0,0001.69,0002.65,0001.29
2022-02-06 05:16:00,,0827.6,5.00,0.00,22.3,21.6,00.0,31.3,24.1,07.7,0000.0,0001.63,0002.43,0001.25
2022-02-06 05:17:00,,0827.7,5.00,0.00,22.3,21.6,00.0,31.3,24.0,07.8,0000.0,0001.64,0002.48,0001.23
2022-02-06 05:18:00,,0827.7,4.98,0.00,22.3,21.5,00.0,31.3,23.9,07.8,0000.0,0001.63,0002.87,0001.19
2022-02-06 05:19:00,,0827.7,5.02,0.00,22.2,21.5,00.0,31.3,23.9,07.7,0000.0,0001.61,0002.86,0001.15
2022-02-06 05:20:00,,0827.7,4.98,0.00,22.2,21.5,00.0,31.3,23.9,07.7,0000.0,0001.58,0002.81,0001.12
2022-02-06 05:21:00,,0827.7,5.01,0.00,22.2,21.5,00.0,31.3,24.0,07.6,0000.0,0001.55,0002.74,0001.11
2022-02-06 05:22:00,,0827.7,4.99,0.00,22.2,21.5,00.0,31.3,24.0,07.6,0000.0,0001.54,0002.71,0001.10
2022-02-06 05:23:00,,0827.7,4.99,0.00,22.2,21.5,00.0,31.3,23.9,07.7,0000.0,0001.53,0002.75,0001.10
2022-02-06 05:24:00,,0827.7,5.01,0.00,22.2,21.5,00.0,31.2,23.9,07.6,0000.0,0001.52,0002.79,0001.08
2022-02-06 05:25:00,,0827.7,4.99,0.00,22.2,21.5,00.0,31.2,23.9,07.6,0000.0,0001.47,0002.70,0001.07
2022-02-06 05:26:00,,0827.7,5.01,0.00,22.2,21.4,00.0,31.2,23.9,07.6,0000.0,0001.43,0002.72,0001.04
2022-02-06 05:27:00,,0827.7,4.99,0.00,22.1,21.4,00.0,31.2,23.8,07.6,0000.0,0001.39,0002.78,0001.01
2022-02-06 05:28:00,,0827.7,5.01,0.00,22.1,21.4,00.0,31.2,23.8,07.6,0000.0,0001.33,0002.76,0000.97
2022-02-06 05:29:00,,0827.7,4.99,0.00,22.1,21.4,00.0,31.2,23.9,07.6,0000.0,0001.23,0002.26,0000.94
2022-02-06 05:30:00,,0827.7,5.01,0.00,22.1,21.4,00.0,31.2,23.8,07.6,0000.0,0001.19,0002.10,0000.91
2022-02-06 05:31:00,,0827.8,4.99,0.00,22.1,21.5,00.0,31.2,23.9,07.7,0000.0,0001.17,0002.74,0000.87
2022-02-06 05:32:00,,0827.8,5.01,0.00,22.2,22.2,00.0,31.2,24.1,07.8,0000.0,0001.16,0003.52,0000.83
2022-02-06 05:33:00,,0827.8,5.00,0.00,22.4,22.9,00.0,31.3,24.3,07.6,0000.0,0001.18,0003.68,0000.79
2022-02-06 05:34:00,,0827.8,5.01,0.00,22.5,23.1,00.0,31.3,24.5,07.6,0000.0,0001.12,0003.60,0000.75
2022-02-06 05:35:00,,0827.9,5.00,0.00,22.5,22.9,00.0,31.3,24.5,07.5,0000.0,0001.06,0003.55,0000.70
2022-02-06 05:36:00,,0827.9,5.00,0.00,22.5,22.7,00.0,31.3,24.4,08.0,0000.0,0001.10,0003.81,0000.71
2022-02-06 05:37:00,,0828.0,5.01,0.00,22.5,22.5,00.0,31.4,24.4,08.2,0000.0,0001.13,0004.58,0000.75
2022-02-06 05:38:00,,0828.0,4.99,0.00,22.5,22.4,00.0,31.4,24.4,08.1,0000.0,0001.19,0004.54,0000.80
2022-02-06 05:39:00,,0827.9,4.99,0.00,22.5,22.3,00.0,31.4,24.3,08.1,0000.0,0001.24,0004.57,0000.85
2022-02-06 05:40:00,,0828.0,5.01,0.00,22.5,22.1,00.0,31.4,24.3,08.3,0000.0,0001.33,0004.73,0000.92
2022-02-06 05:41:00,,0827.9,4.99,0.00,22.5,22.1,00.0,31.4,24.3,08.4,0000.0,0001.43,0004.91,0001.00
2022-02-06 05:42:00,,0828.0,5.00,0.00,22.5,22.0,00.0,31.4,24.3,08.4,0000.0,0001.52,0004.46,0001.09
2022-02-06 05:43:00,,0827.9,5.00,0.00,22.5,22.0,00.0,31.4,24.3,08.3,0000.0,0001.67,0003.92,0001.20
2022-02-06 05:44:00,,0827.9,5.00,0.00,22.5,21.9,00.0,31.4,24.3,08.0,0000.0,0001.75,0003.94,0001.30
2022-02-06 05:45:00,,0827.9,4.99,0.00,22.5,21.9,00.0,31.4,24.3,08.4,0000.0,0001.88,0004.10,0001.40
2022-02-06 05:46:00,,0827.9,5.01,0.00,22.5,21.9,00.0,31.4,24.2,08.2,0000.0,0002.00,0004.21,0001.49
2022-02-06 05:47:00,,0827.8,4.99,0.00,22.4,21.8,00.0,31.4,24.2,08.2,0000.0,0002.08,0004.19,0001.56
2022-02-06 05:48:00,,0827.8,5.00,0.00,22.4,21.8,00.0,31.4,24.2,08.2,0000.0,0002.13,0004.51,0001.59
2022-02-06 05:49:00,,0827.8,5.00,0.00,22.4,21.8,00.0,31.4,24.2,08.1,0000.0,0002.16,0005.32,0001.62
2022-02-06 05:50:00,,0827.8,5.00,0.00,22.4,21.8,00.0,31.4,24.1,07.8,0000.0,0002.17,0005.33,0001.64
2022-02-06 05:51:00,,0827.8,5.00,0.00,22.4,21.8,00.0,31.4,24.1,07.9,0000.0,0002.15,0005.30,0001.61
2022-02-06 05:52:00,,0827.8,5.01,0.00,22.4,21.7,00.0,31.4,24.1,07.8,0000.0,0002.09,0005.19,0001.57
2022-02-06 05:53:00,,0827.9,4.99,0.00,22.4,21.7,00.0,31.4,24.1,07.8,0000.0,0002.02,0005.29,0001.53
2022-02-06 05:54:00,,0827.9,4.99,0.00,22.4,21.7,00.0,31.4,24.1,08.1,0000.0,0001.92,0005.07,0001.47
2022-02-06 05:55:00,,0827.9,5.01,0.00,22.4,21.7,00.0,31.4,24.1,08.0,0000.0,0001.87,0004.94,0001.45
2022-02-06 05:56:00,,0827.9,4.99,0.00,22.3,21.6,00.0,31.4,24.0,07.8,0000.0,0001.78,0004.78,0001.41
2022-02-06 05:57:00,,0828.0,5.01,0.00,22.3,21.6,00.0,31.4,24.0,07.8,0000.0,0001.71,0004.71,0001.35
2022-02-06 05:58:00,,0828.1,5.00,0.00,22.3,21.6,00.0,31.4,24.0,07.6,0000.0,0001.61,0004.56,0001.28
2022-02-06 05:59:00,,0828.2,4.99,0.00,22.3,21.6,00.0,31.3,24.0,07.7,0000.0,0001.51,0003.52,0001.21
